Location: Chena
(64.8152°N, 147.9227°W)
Time: 01:02:51
(UTC+00:00)

Vanguard 2 - Pass Details

Date: 13 March 2021
Orbit: 552 x 2938 km, 32.9° (Epoch: 10 April)

Event Time Altitude Azimuth Distance (km) Brightness Sun altitude
Rises 12:46:30 0° 218° (SW) 4,992 - -21.2°
Reaches altitude 10° 12:52:51 10° 190° (S) 4,583 - -20.7°
Exits shadow 12:54:07 11° 185° (S) 4,597 11.0 -20.6°
Maximum altitude 12:56:52 12° 172° (S) 4,732 11.2 -20.4°
Drops below altitude 10° 13:01:19 10° 155° (SSE) 5,196 11.6 -20.1°
Sets 13:10:07 0° 131° (SE) 6,625 12.4 -19.3°
